TimeEST,TemperatureF,Dew PointF,Humidity,Sea Level PressureIn,VisibilityMPH,Wind Direction,Wind SpeedMPH,Gust SpeedMPH,PrecipitationIn,Events,Conditions,WindDirDegrees,DateUTC
12:53 AM,8.1,-5.1,55,30.48,10.0,WSW,3.5,-,N/A,,Clear,250,2014-01-24 05:53:00
1:53 AM,7.0,-5.1,58,30.49,10.0,West,8.1,-,N/A,,Clear,270,2014-01-24 06:53:00
2:53 AM,5.0,-5.1,63,30.50,10.0,West,6.9,-,N/A,,Clear,280,2014-01-24 07:53:00
3:53 AM,6.1,-6.0,58,30.51,10.0,WSW,6.9,-,N/A,,Clear,240,2014-01-24 08:53:00
4:53 AM,5.0,-6.0,61,30.52,10.0,West,5.8,-,N/A,,Clear,270,2014-01-24 09:53:00
5:53 AM,5.0,-6.0,61,30.54,10.0,WNW,6.9,-,N/A,,Clear,290,2014-01-24 10:53:00
6:53 AM,5.0,-7.1,58,30.55,10.0,West,4.6,-,N/A,,Clear,260,2014-01-24 11:53:00
7:53 AM,5.0,-7.1,58,30.55,10.0,WSW,9.2,-,N/A,,Clear,250,2014-01-24 12:53:00
8:53 AM,6.1,-6.0,58,30.55,10.0,WSW,6.9,-,N/A,,Clear,240,2014-01-24 13:53:00
9:53 AM,9.0,-5.1,53,30.55,10.0,WSW,6.9,-,N/A,,Clear,250,2014-01-24 14:53:00
10:53 AM,10.9,-2.9,54,30.53,10.0,West,9.2,-,N/A,,Clear,260,2014-01-24 15:53:00
11:53 AM,12.9,-2.9,49,30.48,10.0,WSW,10.4,-,N/A,,Clear,240,2014-01-24 16:53:00
12:53 PM,15.1,-2.9,45,30.43,10.0,SW,8.1,-,N/A,,Clear,220,2014-01-24 17:53:00
1:53 PM,17.1,-4.0,39,30.39,10.0,SW,10.4,-,N/A,,Clear,220,2014-01-24 18:53:00
2:53 PM,19.0,-5.1,34,30.35,10.0,WSW,9.2,-,N/A,,Clear,250,2014-01-24 19:53:00
3:53 PM,19.0,-7.1,31,30.32,10.0,SW,11.5,-,N/A,,Clear,230,2014-01-24 20:53:00
4:53 PM,19.0,-5.1,34,30.29,10.0,South,10.4,-,N/A,,Scattered Clouds,180,2014-01-24 21:53:00
5:53 PM,17.1,-2.0,43,30.27,10.0,South,9.2,-,N/A,,Clear,180,2014-01-24 22:53:00
6:53 PM,18.0,-2.9,40,30.24,10.0,South,10.4,-,N/A,,Clear,190,2014-01-24 23:53:00
7:53 PM,16.0,-2.0,45,30.21,10.0,South,10.4,-,N/A,,Clear,180,2014-01-25 00:53:00
8:53 PM,15.1,-2.9,45,30.17,10.0,South,9.2,-,N/A,,Clear,170,2014-01-25 01:53:00
9:53 PM,15.1,-4.0,43,30.12,10.0,SSE,10.4,-,N/A,,Clear,160,2014-01-25 02:53:00
10:53 PM,17.1,-4.0,39,30.07,10.0,South,11.5,-,N/A,,Clear,170,2014-01-25 03:53:00
11:53 PM,15.1,-2.9,45,30.04,10.0,South,10.4,-,N/A,,Clear,170,2014-01-25 04:53:00